This is the latest recevied weather packets stored in our database for station/object NE1CU. If no packets are shown the sender has not sent any weather packets the latest 10 day(s).
| Time | Temp. | Humidity | Pressure | Rain* | Wind** | Luminosity | Snow |
|---|---|---|---|---|---|---|---|
| 1778017158 | 21.11° C | 55% | 1008.6 hPa | 0 mm | - | 180 W/m² | - |
| 1778016856 | 21.67° C | 53% | 1008.5 hPa | 0 mm | - | 277 W/m² | - |
| 1778016552 | 21.67° C | 53% | 1008.4 hPa | 0 mm | - | 252 W/m² | - |
| 1778016249 | 21.67° C | 52% | 1008.4 hPa | 0 mm | - | 279 W/m² | - |
| 1778015945 | 21.67° C | 54% | 1008.6 hPa | 0 mm | - | 322 W/m² | - |
| 1778015643 | 21.67° C | 53% | 1008.2 hPa | 0 mm | - | 325 W/m² | - |
| 1778015339 | 21.67° C | 54% | 1008.4 hPa | 0 mm | - | 387 W/m² | - |
| 1778015036 | 21.67° C | 54% | 1008.5 hPa | 0 mm | - | 405 W/m² | - |
| 1778014732 | 21.67° C | 53% | 1008.6 hPa | 0 mm | - | 325 W/m² | - |
| 1778014431 | 22.22° C | 52% | 1008.5 hPa | 0 mm | - | 376 W/m² | - |
| 1778014128 | 22.22° C | 52% | 1008.4 hPa | 0 mm | - | 336 W/m² | - |
| 1778013826 | 22.22° C | 53% | 1008.5 hPa | 0 mm | - | 408 W/m² | - |
| 1778013523 | 22.78° C | 52% | 1008.3 hPa | 0 mm | - | 411 W/m² | - |
| 1778013219 | 22.78° C | 50% | 1008.4 hPa | 0 mm | - | 474 W/m² | - |
| 1778012916 | 22.78° C | 51% | 1008.5 hPa | 0 mm | - | 444 W/m² | - |
| 1778012612 | 23.33° C | 50% | 1008.5 hPa | 0 mm | - | 508 W/m² | - |
| 1778012309 | 22.78° C | 53% | 1008.6 hPa | 0 mm | - | 517 W/m² | - |
| 1778012006 | 22.78° C | 50% | 1008.6 hPa | 0 mm | - | 564 W/m² | - |
| 1778011704 | 22.78° C | 51% | 1008.7 hPa | 0 mm | - | 564 W/m² | - |
| 1778011401 | 23.33° C | 51% | 1008.7 hPa | 0 mm | - | 567 W/m² | - |
| 1778011096 | 22.78° C | 50% | 1008.7 hPa | 0 mm | - | 605 W/m² | - |
| 1778010794 | 23.33° C | 52% | 1008.8 hPa | 0 mm | - | 627 W/m² | - |
| 1778010491 | 22.78° C | 53% | 1008.8 hPa | 0 mm | - | 638 W/m² | - |
| 1778010188 | 23.33° C | 51% | 1008.7 hPa | 0 mm | - | 655 W/m² | - |
| 1778009883 | 23.33° C | 50% | 1008.7 hPa | 0 mm | - | 671 W/m² | - |
* Rain latest hour (hover to see other rain measurements)
** Current wind speed in m/s (hover to see current wind gust speed)